Location: Wanzleben
(52.0609°N, 11.4408°E)
Time: 19:18:04
(UTC+00:00)

Cosmos 2151 Rocket - Pass Details

Date: 18 September 2020
Orbit: 618 x 642 km, 82.5° (Epoch: 22 October)

Event Time Altitude Azimuth Distance (km) Brightness Sun altitude
Rises 18:45:14 0° 174° (S) 2,904 6.7 -13.4°
Reaches altitude 10° 18:47:30 10° 169° (S) 2,006 5.9 -13.8°
Maximum altitude 18:51:48 51° 94° (E) 802 3.7 -14.4°
Drops below altitude 10° 18:56:10 10° 19° (NNE) 2,036 6.3 -15.0°
Sets 18:58:28 0° 15° (NNE) 2,954 7.2 -15.3°
